timestamp,surface_pressure_avg,surface_temp_avg,battery_voltage,lat,long
2019-06-26 00:00:00+00:00,226.4881,12.57,13.21,47.84626,-54.09684
2019-06-26 00:10:00+00:00,227.3682,12.58,13.05,47.84626,-54.09684
2019-06-26 00:20:00+00:00,226.0465,12.6,13.05,47.84626,-54.09684
2019-06-26 00:30:00+00:00,227.0314,12.6,13.05,47.84626,-54.09684
2019-06-26 00:40:00+00:00,229.7581,12.6,13.05,47.84626,-54.09684
2019-06-26 00:50:00+00:00,228.0265,12.6,13.05,47.84626,-54.09684
2019-06-26 01:00:00+00:00,225.8931,12.6,12.97,47.84626,-54.09684
2019-06-26 01:10:00+00:00,228.3331,12.6,12.89,47.84626,-54.09684
2019-06-26 01:20:00+00:00,233.5214,12.6,12.97,47.84626,-54.09684
2019-06-26 01:30:00+00:00,235.0015,12.6,12.97,47.84626,-54.09684
2019-06-26 01:40:00+00:00,234.1064,12.6,12.97,47.84626,-54.09684
2019-06-26 01:50:00+00:00,237.3398,12.6,12.97,47.84626,-54.09684
2019-06-26 02:00:00+00:00,242.9531,12.6,12.89,47.84626,-54.09684
2019-06-26 02:10:00+00:00,243.9447,12.6,12.81,47.84626,-54.09684
2019-06-26 02:20:00+00:00,241.9114,12.59,12.89,47.84626,-54.09684
2019-06-26 02:30:00+00:00,246.0314,12.5,12.89,47.84626,-54.09684
2019-06-26 02:40:00+00:00,252.4148,12.5,12.97,47.84626,-54.09684
2019-06-26 02:50:00+00:00,254.9531,12.47,12.97,47.84626,-54.09684
2019-06-26 03:00:00+00:00,259.4764,12.4,12.89,47.84626,-54.09684
2019-06-26 03:10:00+00:00,269.5648,12.3,12.81,47.84626,-54.09684
2019-06-26 03:20:00+00:00,276.3197,12.2,12.89,47.84626,-54.09684
2019-06-26 03:30:00+00:00,278.2313,12.2,12.89,47.84626,-54.09684
2019-06-26 03:40:00+00:00,283.223,12.25,12.89,47.84626,-54.09684
2019-06-26 03:50:00+00:00,288.8713,12.3,12.89,47.84626,-54.09684
2019-06-26 04:00:00+00:00,289.6413,12.32,12.81,47.84626,-54.09684
2019-06-26 04:10:00+00:00,291.0564,12.39,12.73,47.84626,-54.09684
2019-06-26 04:20:00+00:00,296.0198,12.4,12.81,47.84626,-54.09684
2019-06-26 04:30:00+00:00,302.198,12.3,12.89,47.84626,-54.09684
2019-06-26 04:40:00+00:00,304.423,12.2,12.89,47.84626,-54.09684
2019-06-26 04:50:00+00:00,307.7614,12.0,12.89,47.84626,-54.09684
2019-06-26 05:00:00+00:00,309.0496,11.8,12.81,47.84626,-54.09684
2019-06-26 05:10:00+00:00,310.093,11.7,12.73,47.84626,-54.09684
2019-06-26 05:20:00+00:00,312.033,11.7,12.81,47.84626,-54.09684
2019-06-26 05:30:00+00:00,314.5647,11.69,12.81,47.84626,-54.09684
2019-06-26 05:40:00+00:00,313.0747,11.6,12.89,47.84626,-54.09684
2019-06-26 05:50:00+00:00,311.8614,11.59,12.89,47.84626,-54.09684
2019-06-26 06:00:00+00:00,313.663,11.58,12.81,47.84626,-54.09684
2019-06-26 06:10:00+00:00,315.7296,11.5,12.73,47.84626,-54.09684
2019-06-26 06:20:00+00:00,313.0596,11.5,12.81,47.84626,-54.09684
2019-06-26 06:30:00+00:00,310.8148,11.52,12.81,47.84626,-54.09684
2019-06-26 06:40:00+00:00,309.5763,11.58,12.81,47.84626,-54.09684
2019-06-26 06:50:00+00:00,308.053,11.6,12.89,47.84626,-54.09684
2019-06-26 07:00:00+00:00,304.2297,11.6,12.81,47.84626,-54.09684
2019-06-26 07:10:00+00:00,300.6348,11.63,12.73,47.84626,-54.09684
2019-06-26 07:20:00+00:00,299.1913,11.7,12.81,47.84626,-54.09684
2019-06-26 07:30:00+00:00,295.4114,11.7,12.81,47.84626,-54.09684
2019-06-26 07:40:00+00:00,292.2464,11.7,12.81,47.84626,-54.09684
2019-06-26 07:50:00+00:00,288.7414,11.81,12.89,47.84626,-54.09684
2019-06-26 08:00:00+00:00,283.808,12.1,12.81,47.84626,-54.09684
2019-06-26 08:10:00+00:00,278.998,12.14,12.73,47.84626,-54.09684
2019-06-26 08:20:00+00:00,275.5248,12.3,12.81,47.84626,-54.09684
2019-06-26 08:30:00+00:00,270.7431,12.3,12.89,47.84626,-54.09684
2019-06-26 08:40:00+00:00,265.2148,12.2,12.97,47.84626,-54.09684
2019-06-26 08:50:00+00:00,259.3364,12.1,12.97,47.84626,-54.09684
2019-06-26 09:00:00+00:00,253.6647,12.11,12.97,47.84626,-54.09684
2019-06-26 09:10:00+00:00,248.7781,12.2,12.97,47.84626,-54.09684
2019-06-26 09:20:00+00:00,244.5014,12.3,13.13,47.84626,-54.09684
2019-06-26 09:30:00+00:00,238.2431,12.38,13.21,47.84626,-54.09684
2019-06-26 09:40:00+00:00,233.1347,12.4,13.37,47.84626,-54.09684
2019-06-26 09:50:00+00:00,229.2064,12.4,13.6,47.84626,-54.09684
2019-06-26 10:00:00+00:00,224.8081,12.4,13.68,47.84626,-54.09684
2019-06-26 10:10:00+00:00,220.8415,12.4,13.68,47.84626,-54.09684
2019-06-26 10:20:00+00:00,218.7931,12.4,13.92,47.84626,-54.09684
2019-06-26 10:30:00+00:00,217.6965,12.31,14.08,47.84626,-54.09684
2019-06-26 10:40:00+00:00,214.7914,12.3,14.32,47.84626,-54.09684
2019-06-26 10:50:00+00:00,212.4014,12.3,14.48,47.84626,-54.09684
2019-06-26 11:00:00+00:00,214.2048,12.3,14.48,47.84626,-54.09684
2019-06-26 11:10:00+00:00,215.3981,12.2,14.48,47.84626,-54.09684
2019-06-26 11:20:00+00:00,214.1347,12.09,14.64,47.84626,-54.09684
2019-06-26 11:30:00+00:00,215.0815,11.96,14.64,47.84626,-54.09684
2019-06-26 11:40:00+00:00,216.6815,11.9,14.64,47.84626,-54.09684
2019-06-26 11:50:00+00:00,217.8648,11.8,14.64,47.84626,-54.09684
2019-06-26 12:00:00+00:00,218.0048,11.7,14.56,47.84626,-54.09684
2019-06-26 12:10:00+00:00,217.8081,11.6,14.32,47.84626,-54.09684
2019-06-26 12:20:00+00:00,217.9247,11.55,14.64,47.84626,-54.09684
2019-06-26 12:30:00+00:00,217.9014,11.59,14.64,47.84626,-54.09684
2019-06-26 12:40:00+00:00,217.1348,11.6,14.32,47.84626,-54.09684
2019-06-26 12:50:00+00:00,216.4715,11.68,14.4,47.84626,-54.09684
2019-06-26 13:00:00+00:00,217.2514,11.6,14.24,47.84626,-54.09684
2019-06-26 13:10:00+00:00,218.8081,11.5,14.16,47.84626,-54.09684
2019-06-26 13:20:00+00:00,219.9181,11.55,14.32,47.84626,-54.09684
2019-06-26 13:30:00+00:00,220.6364,11.5,14.32,47.84626,-54.09684
2019-06-26 13:40:00+00:00,222.9015,11.5,14.48,47.84626,-54.09684
2019-06-26 13:50:00+00:00,224.8648,11.5,14.48,47.84626,-54.09684
2019-06-26 14:00:00+00:00,226.2765,11.5,14.56,47.84626,-54.09684
2019-06-26 14:10:00+00:00,229.6781,11.5,14.56,47.84626,-54.09684
2019-06-26 14:20:00+00:00,233.3765,11.4,14.56,47.84626,-54.09684
2019-06-26 14:30:00+00:00,236.8481,11.48,14.56,47.84626,-54.09684
2019-06-26 14:40:00+00:00,239.4131,11.5,14.56,47.84626,-54.09684
2019-06-26 14:50:00+00:00,243.8448,11.33,14.56,47.84626,-54.09684
2019-06-26 15:00:00+00:00,246.7081,11.02,14.48,47.84626,-54.09684
2019-06-26 15:10:00+00:00,252.0331,11.18,14.4,47.84626,-54.09684
2019-06-26 15:20:00+00:00,257.3597,11.19,14.48,47.84626,-54.09684
2019-06-26 15:30:00+00:00,259.9214,11.09,14.48,47.84626,-54.09684
2019-06-26 15:40:00+00:00,260.4648,10.7,14.48,47.84626,-54.09684
2019-06-26 15:50:00+00:00,264.5098,10.5,14.48,47.84626,-54.09684
2019-06-26 16:00:00+00:00,272.8047,10.6,14.32,47.84626,-54.09684
2019-06-26 16:10:00+00:00,276.263,10.58,14.32,47.84626,-54.09684
2019-06-26 16:20:00+00:00,277.5298,10.68,14.4,47.84626,-54.09684
2019-06-26 16:30:00+00:00,282.1315,10.7,14.32,47.84626,-54.09684
2019-06-26 16:40:00+00:00,287.6847,10.79,14.32,47.84626,-54.09684
2019-06-26 16:50:00+00:00,290.8964,10.83,14.32,47.84626,-54.09684
2019-06-26 17:00:00+00:00,290.7514,10.89,14.24,47.84626,-54.09684
2019-06-26 17:10:00+00:00,294.178,10.9,14.16,47.84626,-54.09684
2019-06-26 17:20:00+00:00,293.6563,10.9,14.24,47.84626,-54.09684
2019-06-26 17:30:00+00:00,294.508,11.0,14.16,47.84626,-54.09684
2019-06-26 17:40:00+00:00,297.2363,11.04,14.16,47.84626,-54.09684
2019-06-26 17:50:00+00:00,301.0281,11.09,14.16,47.84626,-54.09684
2019-06-26 18:00:00+00:00,301.2096,11.1,14.0,47.84626,-54.09684
2019-06-26 18:10:00+00:00,301.6663,11.28,13.92,47.84626,-54.09684
2019-06-26 18:20:00+00:00,306.4531,11.39,14.0,47.84626,-54.09684
2019-06-26 18:30:00+00:00,309.1763,11.5,14.0,47.84626,-54.09684
2019-06-26 18:40:00+00:00,307.388,11.59,14.0,47.84626,-54.09684
2019-06-26 18:50:00+00:00,307.9031,11.6,14.0,47.84626,-54.09684
2019-06-26 19:00:00+00:00,310.5046,11.57,13.92,47.84626,-54.09684
2019-06-26 19:10:00+00:00,308.553,11.69,13.84,47.84626,-54.09684
2019-06-26 19:20:00+00:00,302.2797,11.9,13.84,47.84626,-54.09684
2019-06-26 19:30:00+00:00,301.1229,11.53,13.92,47.84626,-54.09684
2019-06-26 19:40:00+00:00,302.533,11.64,13.92,47.84626,-54.09684
2019-06-26 19:50:00+00:00,296.6597,11.8,13.92,47.84626,-54.09684
2019-06-26 20:00:00+00:00,292.6096,11.69,13.84,47.84626,-54.09684
2019-06-26 20:10:00+00:00,294.5147,11.35,13.76,47.84626,-54.09684
2019-06-26 20:20:00+00:00,293.223,11.55,13.84,47.84626,-54.09684
2019-06-26 20:30:00+00:00,285.1264,11.7,13.84,47.84626,-54.09684
2019-06-26 20:40:00+00:00,278.2197,11.7,13.84,47.84626,-54.09684
2019-06-26 20:50:00+00:00,279.0663,11.78,13.84,47.84626,-54.09684
2019-06-26 21:00:00+00:00,275.793,11.7,13.76,47.84626,-54.09684
2019-06-26 21:10:00+00:00,265.6648,12.15,13.68,47.84626,-54.09684
2019-06-26 21:20:00+00:00,258.8264,12.28,13.68,47.84626,-54.09684
2019-06-26 21:30:00+00:00,258.3664,12.1,13.68,47.84626,-54.09684
2019-06-26 21:40:00+00:00,254.9064,12.14,13.76,47.84626,-54.09684
2019-06-26 21:50:00+00:00,247.0031,12.56,13.76,47.84626,-54.09684
2019-06-26 22:00:00+00:00,243.2831,13.08,13.68,47.84626,-54.09684
2019-06-26 22:10:00+00:00,240.2981,13.34,13.6,47.84626,-54.09684
2019-06-26 22:20:00+00:00,235.5065,13.68,13.6,47.84626,-54.09684
2019-06-26 22:30:00+00:00,231.7198,13.77,13.6,47.84626,-54.09684
2019-06-26 22:40:00+00:00,228.3098,13.7,13.6,47.84626,-54.09684
2019-06-26 22:50:00+00:00,221.8415,13.7,13.53,47.84626,-54.09684
2019-06-26 23:00:00+00:00,219.5331,13.7,13.44,47.84626,-54.09684
2019-06-26 23:10:00+00:00,218.5614,13.7,13.29,47.84626,-54.09684
2019-06-26 23:20:00+00:00,215.2415,13.79,13.29,47.84626,-54.09684
2019-06-26 23:30:00+00:00,212.6714,13.8,13.29,47.84626,-54.09684
2019-06-26 23:40:00+00:00,212.4081,13.84,13.21,47.84626,-54.09684
2019-06-26 23:50:00+00:00,211.8715,13.9,13.21,47.84626,-54.09684
